SCOUT A DEB, 3122

Orbit data source: Space-Track

SCOUT A DEB, 3122 is space debris in LEO originally from a launch on Mon, 25 Sep 1967 UTC launched from the Air Force Western Test Range (AFWTR). Debris objects in space refer to the collection of defunct objects orbiting the Earth. Examples of debris include non-operational satellites, rocket bodies, and fragments generated from explosions, collisions, or faulty payload assembly.

Loading next visibility...
Identifier
3122, 1967-092D
Orbit
LEO
Country
Flag of USUS
Related business
Manufacturer
Unknown
Mission
Spacecraft
Bus & Motor
Unknown
Mass
Unknown
Launch date (UTC)
1967-09-25 (59 years ago)
Launch vehicle
Unknown
Launch site
Air Force Western Test Range (AFWTR)
Object type
Payload
Rocket body
Debris
Shape & HBR
Unknown shape, 0.1 m
Radar Cross Section
Small (<0.1 m²)

Expand to show TLE details & history
Last TLE update: 3 hours ago

TLE from 3 hours ago
0 SCOUT A DEB
1  3122U 67092D   26123.89332735  .00000192  00000-0  37603-3 0  9990
2  3122  89.0563  92.2415 0185788 349.3291  37.7222 13.25982632577151
Epoch: 2026-05-03T21:26Z
TLE epoch observation values (Epoch: 2026-05-03T21:26:23.483Z)
Latitude
28.41566°
Longitude
-90.63868°
Altitude
1,055.658 km
Speed
7.38 km/s
True Right ascension
06h 10m 59s
True Declination
28° 16' 40"
Sunlit
Object was in daylight at epoch
Visualization orbit readout
Latitude
Unknown
Longitude
Unknown
Altitude
Unknown
Speed
Unknown
Apparent Right ascension
Unknown
Apparent Declination
Unknown
Sunlit
N/A
Visualization observer readout
Local Sidereal Time
08:12:14
Azimuth
Unknown
Elevation
Unknown
Doppler factor
Unknown
Orbital elements
Apogee altitude
1,299.072 km
Perigee altitude
1,019.009 km
Semi-major axis
7,537.177 km
Eccentricity
0.01858
Inclination
89.0563°
RAAN
92.2415°
Arg. of periapsis
349.3291°
True anomaly
39.04902°
Mean anomaly
37.7222°
Eccentric anomaly
38.38316°
Mean motion
3.31688 °/min
Orbital period
108.54 mins
BSTAR
0.00037603
Loading maneuver chart data...
Computing Atmospheric mass density...
Loading historical data...
Loading historical data...
Loading historical data...
Loading historical data...
Loading historical data...
Loading historical data...
Loading historical data...

Documentation

Showing up to 5 results
|